This is the latest recevied weather packets stored in our database for station/object K4DNM. If no packets are shown the sender has not sent any weather packets the latest 10 day(s).
| Time | Temp. | Humidity | Pressure | Rain* | Wind** | Luminosity | Snow |
|---|---|---|---|---|---|---|---|
| 1778025251 | 23.33° C | 52% | 1013.4 hPa | 0 mm | - | 6 W/m² | - |
| 1778024952 | 23.89° C | 52% | 1013.4 hPa | 0 mm | - | 9 W/m² | - |
| 1778024652 | 23.89° C | 52% | 1013.3 hPa | 0 mm | - | 12 W/m² | - |
| 1778024352 | 23.89° C | 51% | 1013.3 hPa | 0 mm | - | 18 W/m² | - |
| 1778024051 | 23.89° C | 51% | 1013.3 hPa | 0 mm | - | 23 W/m² | - |
| 1778023762 | 24.44° C | 51% | 1013.4 hPa | 0 mm | - | 29 W/m² | - |
| 1778023445 | 24.44° C | 50% | 1013.2 hPa | 0 mm | - | 37 W/m² | - |
| 1778023145 | 24.44° C | 50% | 1013.2 hPa | 0 mm | - | 39 W/m² | - |
| 1778022844 | 24.44° C | 51% | 1013.3 hPa | 0 mm | - | 32 W/m² | - |
| 1778022545 | 24.44° C | 50% | 1013.2 hPa | 0 mm | - | 26 W/m² | - |
| 1778022244 | 24.44° C | 50% | 1013.2 hPa | 0 mm | - | 23 W/m² | - |
| 1778021945 | 24.44° C | 50% | 1013.2 hPa | 0 mm | - | 38 W/m² | - |
| 1778021646 | 24.44° C | 50% | 1013.2 hPa | 0 mm | - | 46 W/m² | - |
| 1778021346 | 24.44° C | 50% | 1013.3 hPa | 0 mm | - | 45 W/m² | - |
| 1778021105 | 25° C | 50% | 1013.4 hPa | 0 mm | - | 40 W/m² | - |
| 1778020807 | 25° C | 49% | 1013.3 hPa | 0 mm | - | 37 W/m² | - |
| 1778020447 | 25° C | 49% | 1013.4 hPa | 0 mm | - | 42 W/m² | - |
| 1778020144 | 25° C | 49% | 1013.5 hPa | 0 mm | - | 37 W/m² | - |
| 1778019840 | 25.56° C | 48% | 1013.5 hPa | 0 mm | - | 37 W/m² | - |
| 1778019540 | 25.56° C | 48% | 1013.4 hPa | 0 mm | - | 57 W/m² | - |
| 1778019300 | 25.56° C | 48% | 1013.4 hPa | 0 mm | - | 76 W/m² | - |
| 1778018938 | 26.11° C | 47% | 1013.4 hPa | 0 mm | - | 69 W/m² | - |
| 1778018638 | 26.11° C | 48% | 1013.4 hPa | 0 mm | - | 85 W/m² | - |
| 1778018337 | 26.11° C | 48% | 1013.4 hPa | 0 mm | - | 115 W/m² | - |
| 1778018037 | 26.11° C | 48% | 1013.5 hPa | 0 mm | - | 96 W/m² | - |
* Rain latest hour (hover to see other rain measurements)
** Current wind speed in m/s (hover to see current wind gust speed)